Location: ??
(34.9170°N, 135.5016°E)
Time: 19:00:27
(UTC+00:00)

S-56A Canister/Altair - All Passes

Search period start: 04 March 2021 00:00
Search period end: 14 March 2021 00:00
Orbit: 631 x 2501 km, 38.9° (Epoch: 03 March)

Date Brightness Start Highest point End Pass type
(mag) Time Alt. Az. Time Alt. Az. Time Alt. Az.
04 Mar - 01:22:42 10° S 01:30:26 21° SE 01:39:33 10° E daylight
04 Mar - 03:22:29 10° SW 03:34:36 59° SE 03:49:21 10° ENE daylight
04 Mar - 05:27:07 10° WSW 05:41:22 84° NNW 05:56:21 10° ENE daylight
04 Mar - 07:34:08 10° W 07:49:28 77° N 08:02:48 10° E daylight
04 Mar - 09:41:45 10° WNW 09:56:41 77° SSW 10:07:49 10° ESE visible
04 Mar - 11:50:15 10° WNW 12:01:15 32° SW 12:09:32 10° S visible
05 Mar - 00:51:21 10° SSE 00:57:31 16° SE 01:04:38 10° E daylight
05 Mar - 02:49:50 10° SW 03:01:13 54° SE 03:15:34 10° ENE daylight
05 Mar - 04:53:53 10° WSW 05:07:37 87° NNW 05:22:52 10° ENE daylight
05 Mar - 07:00:33 10° W 07:15:41 76° N 07:29:35 10° E daylight
05 Mar - 09:07:58 10° WNW 09:23:13 82° SSW 09:35:03 10° ESE visible
05 Mar - 11:16:08 10° WNW 11:28:18 38° SW 11:37:25 10° SSE visible
06 Mar - 00:20:50 10° SE 00:24:41 12° ESE 00:28:55 10° ESE daylight
06 Mar - 02:17:19 10° SSW 02:27:56 48° SE 02:41:42 10° ENE daylight
06 Mar - 04:20:47 10° WSW 04:33:55 89° SSE 04:49:18 10° ENE daylight
06 Mar - 06:27:02 10° W 06:41:51 76° N 06:56:16 10° E daylight
06 Mar - 08:34:15 10° WNW 08:49:39 87° SSW 09:02:10 10° ESE daylight
06 Mar - 10:42:07 10° WNW 10:55:14 43° SW 11:05:09 10° SSE visible
07 Mar - 01:44:55 10° SSW 01:54:47 42° SE 02:07:46 10° ENE daylight
07 Mar - 03:47:47 10° WSW 04:00:16 85° SSE 04:15:40 10° ENE daylight
07 Mar - 05:53:37 10° W 06:08:02 76° N 06:22:51 10° E daylight
07 Mar - 08:00:37 10° WNW 08:16:00 89° NNE 08:29:10 10° ESE daylight
07 Mar - 10:08:11 10° WNW 10:22:03 49° SW 10:32:46 10° SSE visible
07 Mar - 12:20:22 10° W 12:25:23 13° WSW 12:29:52 10° SSW visible
08 Mar - 01:12:41 10° SSW 01:21:44 36° SE 01:33:43 10° ENE daylight
08 Mar - 03:14:54 10° WSW 03:26:43 81° SSE 03:41:56 10° ENE daylight
08 Mar - 05:20:19 10° W 05:34:12 76° N 05:49:22 10° E daylight
08 Mar - 07:27:03 10° WNW 07:42:17 86° NNE 07:56:03 10° ESE daylight
08 Mar - 09:34:20 10° WNW 09:48:46 55° SW 10:00:13 10° SE visible
08 Mar - 11:44:56 10° W 11:52:33 17° SW 11:59:04 10° SSW visible
09 Mar - 00:40:37 10° S 00:48:47 31° SE 00:59:34 10° ENE daylight
09 Mar - 02:42:09 10° SW 02:53:16 76° SSE 03:08:10 10° ENE daylight
09 Mar - 04:47:07 10° W 05:00:25 77° N 05:15:46 10° E daylight
09 Mar - 06:53:33 10° WNW 07:08:32 83° NNE 07:22:49 10° ESE daylight
09 Mar - 09:00:34 10° WNW 09:15:23 61° SW 09:27:33 10° SE visible
09 Mar - 11:10:09 10° W 11:19:37 22° SW 11:27:35 10° S visible
10 Mar - 00:08:44 10° S 00:15:56 25° SE 00:25:18 10° E daylight
10 Mar - 02:09:30 10° SW 02:19:54 70° SSE 02:34:20 10° ENE daylight
10 Mar - 04:14:00 10° W 04:26:40 78° N 04:42:05 10° ENE daylight
10 Mar - 06:20:10 10° WNW 06:34:44 81° NNE 06:49:28 10° E daylight
10 Mar - 08:26:54 10° WNW 08:41:54 67° SSW 08:54:46 10° SE daylight
10 Mar - 10:35:41 10° W 10:46:36 26° SW 10:55:45 10° S visible
10 Mar - 23:37:05 10° S 23:43:10 20° SE 23:50:50 10° E daylight
11 Mar - 01:36:57 10° SW 01:46:39 64° SSE 02:00:28 10° ENE daylight
11 Mar - 03:41:00 10° W 03:53:00 80° NNW 04:08:20 10° ENE daylight
11 Mar - 05:46:51 10° WNW 06:00:56 79° N 06:16:00 10° E daylight
11 Mar - 07:53:20 10° WNW 08:08:20 72° SSW 08:21:50 10° SE daylight
11 Mar - 10:01:28 10° WNW 10:13:29 31° SW 10:23:41 10° S visible
11 Mar - 23:05:51 10° SSE 23:10:30 15° SE 23:16:03 10° E daylight
12 Mar - 01:04:31 10° SW 01:13:31 57° SE 01:26:35 10° ENE daylight
12 Mar - 03:08:06 10° WSW 03:19:24 82° NNW 03:34:32 10° ENE daylight
12 Mar - 05:13:38 10° W 05:27:09 77° N 05:42:26 10° E daylight
12 Mar - 07:19:51 10° WNW 07:34:42 77° SSW 07:48:47 10° SE daylight
12 Mar - 09:27:26 10° WNW 09:40:18 36° SW 09:51:24 10° SSE visible
12 Mar - 22:35:43 10° SE 22:37:53 11° ESE 22:40:14 10° ESE daylight
13 Mar - 00:32:10 10° SSW 00:40:31 50° SE 00:52:39 10° ENE daylight
13 Mar - 02:35:17 10° WSW 02:45:54 85° NNW 03:00:41 10° ENE daylight
13 Mar - 04:40:30 10° W 04:53:23 76° N 05:08:45 10° E daylight
13 Mar - 06:46:28 10° WNW 07:01:02 81° SSW 07:15:36 10° ESE daylight
13 Mar - 08:53:34 10° WNW 09:07:00 41° SW 09:18:56 10° SSE daylight
